DW0148 Weather Reports


time (UTC)temp
C
wind
direction
speed
KPH
gust
KPH
rain 1hr
cm
rain 24hr
cm
rain mn
cm
humidity
%
barometer
mb
20260831011220 23 146 0.0 0.0 0.00 0.00 0.00 92 1016.9
20260831010719 23 146 0.0 0.0 0.00 0.00 0.00 92 1016.9
20260831010217 23 146 0.0 0.0 0.00 0.00 0.00 92 1016.9
20260831005715 23 146 0.0 0.0 0.00 0.00 0.00 92 1016.9
20260831005212 23 146 0.0 0.0 0.00 0.00 0.00 91 1016.9
20260831004708 23 147 0.0 0.0 0.00 0.00 0.00 91 1016.9
20260831004134 23 147 0.0 0.0 0.00 0.00 0.00 91 1016.6
20260831003631 24 146 0.0 0.0 0.00 0.00 0.00 91 1016.6
20260831003057 24 146 0.0 0.0 0.00 0.00 0.00 91 1016.6
20260831002553 24 146 0.0 0.0 0.00 0.00 0.00 91 1016.6
20260831002051 25 146 0.0 0.0 0.00 0.00 0.00 91 1016.3
20260831001549 25 146 0.0 0.0 0.00 0.00 0.00 91 1016.3
20260831001047 25 146 0.0 0.0 0.00 0.00 0.00 90 1016.3
20260831000545 25 146 0.0 0.0 0.00 0.00 0.00 90 1016.6
20260831000042 25 146 0.0 0.0 0.00 0.00 0.00 89 1016.6
20260830235436 26 146 0.0 0.0 0.00 0.00 0.00 89 1016.6
20260830234934 26 146 0.0 0.0 0.00 0.00 0.00 88 1016.6
20260830234433 26 146 0.0 0.0 0.00 0.00 0.00 88 1016.6
20260830233859 26 147 0.0 0.0 0.00 0.00 0.00 87 1016.6
20260830233351 26 146 0.0 0.0 0.00 0.00 0.00 86 1016.6
20260830232849 27 146 0.0 0.0 0.00 0.00 0.00 86 1016.6
20260830232345 27 147 0.0 0.0 0.00 0.00 0.00 85 1016.6
20260830231843 27 146 0.0 0.0 0.00 0.00 0.00 83 1016.6
20260830231342 27 146 0.0 0.0 0.00 0.00 0.00 83 1016.6
20260830230839 27 146 0.0 0.0 0.00 0.00 0.00 82 1016.6
20260830230330 28 146 0.0 0.0 0.00 0.00 0.00 80 1016.3
20260830225828 28 146 0.0 0.0 0.00 0.00 0.00 79 1016.6
20260830225326 28 147 0.0 0.0 0.00 0.00 0.00 79 1016.3
20260830224820 28 147 0.0 0.0 0.00 0.00 0.00 77 1016.3
20260830224318 28 146 0.0 0.0 0.00 0.00 0.00 76 1016.3
20260830223815 29 146 0.0 0.0 0.00 0.00 0.00 75 1016.3
20260830223306 29 146 0.0 0.0 0.00 0.00 0.00 73 1016.3
20260830222804 30 148 0.0 0.0 0.00 0.00 0.00 73 1016.3
20260830222259 30 146 0.0 0.0 0.00 0.00 0.00 72 1016.3
20260830221756 30 146 0.0 0.0 0.00 0.00 0.00 69 1016.3
20260830221253 30 146 0.0 0.0 0.00 0.00 0.00 68 1016.3
20260830220747 31 146 0.0 0.0 0.00 0.00 0.00 63 1016.3
20260830220244 31 146 0.0 0.0 0.00 0.00 0.00 61 1016.3
20260830215741 31 179 0.0 0.0 0.00 0.00 0.00 63 1016.3
20260830215239 31 221 0.0 0.0 0.00 0.00 0.00 63 1016.3
20260830214737 31 255 0.0 0.0 0.00 0.00 0.00 57 1016.3
20260830214123 31 255 0.0 0.0 0.00 0.00 0.00 64 1016.3
20260830213621 32 254 0.0 0.0 0.00 0.00 0.00 58 1016.3
20260830213048 32 242 0.0 0.0 0.00 0.00 0.00 60 1016.3
20260830212441 32 242 0.0 0.0 0.00 0.00 0.00 60 1016.3
20260830211938 32 139 0.0 0.0 0.00 0.00 0.00 61 1016.6
20260830211437 32 246 0.0 0.0 0.00 0.00 0.00 58 1016.6
20260830210901 32 148 0.0 0.0 0.00 0.00 0.00 61 1016.6
20260830210255 32 223 0.0 0.0 0.00 0.00 0.00 61 1016.6
20260830205722 32 224 0.0 0.0 0.00 0.00 0.00 60 1016.6
20260830205148 32 208 0.0 0.0 0.00 0.00 0.00 59 1016.6
20260830204644 32 249 0.0 0.0 0.00 0.00 0.00 62 1016.6
20260830204142 32 200 0.0 0.0 0.00 0.00 0.00 61 1016.6
20260830203637 32 191 0.0 0.0 0.00 0.00 0.00 61 1016.6
20260830203133 32 229 0.0 0.0 0.00 0.00 0.00 64 1016.6
20260830202631 32 228 0.0 0.0 0.00 0.00 0.00 64 1016.6
20260830202130 32 263 0.0 0.0 0.00 0.00 0.00 62 1016.9
20260830201628 32 356 0.0 0.0 0.00 0.00 0.00 63 1016.9
20260830201126 32 13 0.0 0.0 0.00 0.00 0.00 63 1016.9
20260830200625 32 23 0.0 0.0 0.00 0.00 0.00 62 1017.3
20260830200123 32 255 0.0 0.0 0.00 0.00 0.00 63 1017.3
20260830195620 32 195 0.0 0.0 0.00 0.00 0.00 64 1017.3
20260830195118 32 284 0.0 0.0 0.00 0.00 0.00 66 1017.3
20260830194615 32 262 0.0 0.0 0.00 0.00 0.00 67 1017.6
20260830194113 32 290 0.0 0.0 0.00 0.00 0.00 63 1017.6
20260830193540 32 314 0.0 0.0 0.00 0.00 0.00 65 1017.6
20260830193039 32 56 0.0 0.0 0.00 0.00 0.00 67 1017.6
20260830192532 32 60 0.0 0.0 0.00 0.00 0.00 64 1017.6
20260830192030 32 283 0.0 0.0 0.00 0.00 0.00 64 1017.6
20260830191521 32 228 0.0 0.0 0.00 0.00 0.00 62 1017.9
20260830191019 32 262 0.0 0.0 0.00 0.00 0.00 64 1017.9
20260830190446 32 177 0.0 0.0 0.00 0.00 0.00 66 1017.9
20260830185943 32 343 0.0 0.0 0.00 0.00 0.00 65 1017.9
20260830185410 32 77 0.0 0.0 0.00 0.00 0.00 67 1018.3
20260830184908 32 58 0.0 0.0 0.00 0.00 0.00 62 1018.3
20260830184333 32 246 0.0 0.0 0.00 0.00 0.00 66 1018.3
20260830183832 32 211 0.0 0.0 0.00 0.00 0.00 66 1018.3
20260830183329 32 46 0.0 0.0 0.00 0.00 0.00 64 1018.3
20260830182823 32 287 0.0 0.0 0.00 0.00 0.00 65 1018.6
20260830182315 32 322 0.0 0.0 0.00 0.00 0.00 65 1018.6
20260830181811 31 8 0.0 0.0 0.00 0.00 0.00 66 1019.0
20260830181307 31 173 0.0 0.0 0.00 0.00 0.00 68 1019.0
20260830180806 31 257 0.0 0.0 0.00 0.00 0.00 68 1019.0
20260830180259 31 176 0.0 0.0 0.00 0.00 0.00 66 1019.0
20260830175756 31 226 0.0 0.0 0.00 0.00 0.00 69 1019.0
20260830175253 31 90 0.0 0.0 0.00 0.00 0.00 66 1019.0
20260830174647 30 46 0.0 0.0 0.00 0.00 0.00 72 1019.3
20260830174113 30 246 0.0 0.0 0.00 0.00 0.00 75 1019.3
20260830173539 30 53 0.0 0.0 0.00 0.00 0.00 71 1019.3
20260830173004 30 32 0.0 0.0 0.00 0.00 0.00 70 1019.3
20260830172500 30 208 0.0 0.0 0.00 0.00 0.00 69 1019.3
20260830171959 30 131 0.0 0.0 0.00 0.00 0.00 70 1019.6
20260830171424 30 183 0.0 0.0 0.00 0.00 0.00 70 1019.6
20260830170819 30 141 0.0 0.0 0.00 0.00 0.00 74 1019.6
20260830170316 30 203 0.0 0.0 0.00 0.00 0.00 72 1019.6
20260830165813 30 211 0.0 0.0 0.00 0.00 0.00 71 1019.6
20260830165311 30 218 0.0 0.0 0.00 0.00 0.00 71 1020.0
20260830164808 30 131 0.0 0.0 0.00 0.00 0.00 71 1020.0
20260830164305 30 98 0.0 0.0 0.00 0.00 0.00 71 1020.0
20260830163730 30 238 0.0 0.0 0.00 0.00 0.00 75 1020.0
20260830163228 29 212 0.0 0.0 0.00 0.00 0.00 75 1020.3
20260830162727 29 136 0.0 0.0 0.00 0.00 0.00 74 1020.3
20260830162223 28 240 0.0 0.0 0.00 0.00 0.00 75 1020.3
20260830161721 28 225 0.0 0.0 0.00 0.00 0.00 75 1020.3
20260830161219 28 77 0.0 0.0 0.00 0.00 0.00 76 1020.3
20260830160718 28 220 0.0 0.0 0.00 0.00 0.00 80 1020.3
20260830160212 28 240 0.0 0.0 0.00 0.00 0.00 82 1020.3
20260830155603 28 240 0.0 0.0 0.00 0.00 0.00 80 1020.3
20260830155101 28 240 0.0 0.0 0.00 0.00 0.00 80 1020.3
20260830154559 28 162 0.0 0.0 0.00 0.00 0.00 78 1020.3
20260830154020 28 226 0.0 0.0 0.00 0.00 0.00 79 1020.3
20260830153446 28 226 0.0 0.0 0.00 0.00 0.00 77 1020.3
20260830152839 28 200 0.0 0.0 0.00 0.00 0.00 77 1020.3
20260830152336 28 253 0.0 0.0 0.00 0.00 0.00 75 1020.3
20260830151835 28 205 0.0 0.0 0.00 0.00 0.00 75 1020.3
20260830151333 28 222 0.0 0.0 0.00 0.00 0.00 74 1020.3
20260830150831 28 231 0.0 0.0 0.00 0.00 0.00 75 1020.3
20260830150256 28 287 0.0 0.0 0.00 0.00 0.00 75 1020.3
20260830145754 28 160 0.0 0.0 0.00 0.00 0.00 76 1020.3
20260830145252 28 158 0.0 0.0 0.00 0.00 0.00 78 1020.3
20260830144750 28 212 0.0 0.0 0.00 0.00 0.00 78 1020.3
20260830144248 28 285 0.0 0.0 0.00 0.00 0.00 78 1020.3
20260830143746 28 275 0.0 0.0 0.00 0.00 0.00 78 1020.3
20260830143210 28 212 0.0 0.0 0.00 0.00 0.00 80 1020.3
20260830142636 28 122 0.0 0.0 0.00 0.00 0.00 79 1020.3
20260830142135 27 212 0.0 0.0 0.00 0.00 0.00 80 1020.3
20260830141632 27 255 0.0 0.0 0.00 0.00 0.00 79 1020.3
20260830141131 27 89 0.0 0.0 0.00 0.00 0.00 80 1020.3
20260830140629 27 153 0.0 0.0 0.00 0.00 0.00 79 1020.3
20260830140056 27 79 0.0 0.0 0.00 0.00 0.00 78 1020.3
20260830135554 28 255 0.0 0.0 0.00 0.00 0.00 78 1020.3
20260830135051 27 166 0.0 0.0 0.00 0.00 0.00 81 1020.3
20260830134445 27 257 0.0 0.0 0.00 0.00 0.00 82 1020.3
20260830133938 27 190 0.0 0.0 0.00 0.00 0.00 82 1020.3
20260830133437 26 238 0.0 0.0 0.00 0.00 0.00 84 1020.3
20260830132935 26 238 0.0 0.0 0.00 0.00 0.00 87 1020.3
20260830132430 25 239 0.0 0.0 0.00 0.00 0.00 89 1020.3
20260830131855 25 242 0.0 0.0 0.00 0.00 0.00 92 1020.3
20260830131354 24 271 0.0 0.0 0.00 0.00 0.00 93 1020.3
20260830130852 23 271 0.0 0.0 0.00 0.00 0.00 95 1020.3
20260830130351 23 271 0.0 0.0 0.00 0.00 0.00 95 1020.3
20260830125848 22 271 0.0 0.0 0.00 0.00 0.00 95 1020.3
20260830125347 22 271 0.0 0.0 0.00 0.00 0.00 95 1020.0
20260830124845 22 271 0.0 0.0 0.00 0.00 0.00 95 1020.0
20260830124344 22 201 0.0 0.0 0.00 0.00 0.00 95 1020.0
20260830123841 22 201 0.0 0.0 0.00 0.00 0.00 95 1020.0
20260830123339 21 201 0.0 0.0 0.00 0.00 0.00 95 1020.0
20260830122836 21 201 0.0 0.0 0.00 0.00 0.00 95 1020.0
20260830122334 21 201 0.0 0.0 0.00 0.00 0.00 95 1019.6
20260830121833 21 202 0.0 0.0 0.00 0.00 0.00 95 1019.6
20260830121330 21 201 0.0 0.0 0.00 0.00 0.00 95 1019.6
20260830120829 21 201 0.0 0.0 0.00 0.00 0.00 95 1019.6
20260830120327 21 201 0.0 0.0 0.00 0.00 0.00 95 1019.6
20260830115753 21 201 0.0 0.0 0.00 0.00 0.00 95 1019.6
20260830115251 21 201 0.0 0.0 0.00 0.00 0.00 95 1019.6
20260830114748 21 203 0.0 0.0 0.00 0.00 0.00 95 1019.6
20260830114246 20 201 0.0 0.0 0.00 0.00 0.00 95 1019.3
20260830113743 20 201 0.0 0.0 0.00 0.00 0.00 95 1019.3
20260830113242 20 201 0.0 0.0 0.00 0.00 0.00 95 1019.3
20260830112739 20 201 0.0 0.0 0.00 0.00 0.00 95 1019.3
20260830112236 20 201 0.0 0.0 0.00 0.00 0.00 95 1019.3
20260830111734 20 201 0.0 0.0 0.00 0.00 0.00 95 1019.3
20260830111226 20 202 0.0 0.0 0.00 0.00 0.00 95 1019.0
20260830110724 20 203 0.0 0.0 0.00 0.00 0.00 95 1019.0
20260830110222 20 202 0.0 0.0 0.00 0.00 0.00 95 1019.0
20260830105719 20 202 0.0 0.0 0.00 0.00 0.00 95 1019.0
20260830105217 20 203 0.0 0.0 0.00 0.00 0.00 95 1019.0
20260830104715 20 219 0.0 0.0 0.00 0.00 0.00 95 1019.0
20260830104211 20 219 0.0 0.0 0.00 0.00 0.00 95 1019.0
20260830103709 20 219 0.0 0.0 0.00 0.00 0.00 95 1019.0
20260830103207 20 219 0.0 0.0 0.00 0.00 0.00 95 1019.0
20260830102632 20 219 0.0 0.0 0.00 0.00 0.00 95 1019.0
20260830102131 20 219 0.0 0.0 0.00 0.00 0.00 95 1019.0
20260830101629 20 219 0.0 0.0 0.00 0.00 0.00 95 1019.0
20260830101127 20 219 0.0 0.0 0.00 0.00 0.00 95 1019.0
20260830100552 20 219 0.0 0.0 0.00 0.00 0.00 95 1018.6
20260830100051 20 219 0.0 0.0 0.00 0.00 0.00 95 1018.6
20260830095549 20 219 0.0 0.0 0.00 0.00 0.00 95 1018.6
20260830095048 20 219 0.0 0.0 0.00 0.00 0.00 95 1018.6
20260830094546 20 219 0.0 0.0 0.00 0.00 0.00 95 1018.6
20260830094045 20 219 0.0 0.0 0.00 0.00 0.00 95 1018.6
20260830093543 20 219 0.0 0.0 0.00 0.00 0.00 95 1018.6
20260830093042 20 219 0.0 0.0 0.00 0.00 0.00 95 1018.6
20260830092539 20 219 0.0 0.0 0.00 0.00 0.00 95 1018.6
20260830092036 20 219 0.0 0.0 0.00 0.00 0.00 95 1018.6
20260830091503 20 219 0.0 0.0 0.00 0.00 0.00 95 1018.6
20260830091000 20 219 0.0 0.0 0.00 0.00 0.00 95 1018.6
20260830090458 20 219 0.0 0.0 0.00 0.00 0.00 95 1018.6
20260830085955 20 219 0.0 0.0 0.00 0.00 0.00 95 1018.6
20260830085454 20 219 0.0 0.0 0.00 0.00 0.00 95 1018.6
20260830084952 20 219 0.0 0.0 0.00 0.00 0.00 95 1018.6
20260830084451 20 219 0.0 0.0 0.00 0.00 0.00 95 1018.6
20260830083949 20 219 0.0 0.0 0.00 0.00 0.00 95 1018.6
20260830083447 20 219 0.0 0.0 0.00 0.00 0.00 95 1018.6
20260830082945 20 219 0.0 0.0 0.00 0.00 0.00 95 1018.6
20260830082339 20 219 0.0 0.0 0.00 0.00 0.00 95 1018.6
20260830081837 20 219 0.0 0.0 0.00 0.00 0.00 95 1018.6
20260830081335 20 219 0.0 0.0 0.00 0.00 0.00 95 1018.6
20260830080832 20 219 0.0 0.0 0.00 0.00 0.00 95 1018.6
20260830080329 21 219 0.0 0.0 0.00 0.00 0.00 95 1018.3
20260830075828 20 219 0.0 0.0 0.00 0.00 0.00 95 1018.3
20260830075326 20 219 0.0 0.0 0.00 0.00 0.00 95 1018.3
20260830074824 20 219 0.0 0.0 0.00 0.00 0.00 95 1018.6
20260830074323 20 219 0.0 0.0 0.00 0.00 0.00 95 1018.6
20260830073821 20 219 0.0 0.0 0.00 0.00 0.00 95 1018.6
20260830073319 20 219 0.0 0.0 0.00 0.00 0.00 95 1018.6
20260830072818 20 219 0.0 0.0 0.00 0.00 0.00 95 1018.6
20260830072315 20 219 0.0 0.0 0.00 0.00 0.00 95 1018.6
20260830071812 20 219 0.0 0.0 0.00 0.00 0.00 95 1018.6
20260830071310 20 219 0.0 0.0 0.00 0.00 0.00 95 1018.6
20260830070734 20 219 0.0 0.0 0.00 0.00 0.00 95 1018.6
20260830070232 20 219 0.0 0.0 0.00 0.00 0.00 95 1018.3
20260830065729 21 219 0.0 0.0 0.00 0.00 0.00 95 1018.3
20260830065228 21 219 0.0 0.0 0.00 0.00 0.00 95 1018.3
20260830064726 21 219 0.0 0.0 0.00 0.00 0.00 95 1018.3
20260830064224 21 219 0.0 0.0 0.00 0.00 0.00 95 1018.3
20260830063722 21 219 0.0 0.0 0.00 0.00 0.00 95 1018.3
20260830063045 21 219 0.0 0.0 0.00 0.00 0.00 95 1018.3
20260830062544 21 219 0.0 0.0 0.00 0.00 0.00 95 1018.3
20260830062042 21 219 0.0 0.0 0.00 0.00 0.00 95 1018.3
20260830061539 21 219 0.0 0.0 0.00 0.00 0.00 95 1018.3
20260830061038 21 219 0.0 0.0 0.00 0.00 0.00 95 1018.3
20260830060537 21 219 0.0 0.0 0.00 0.00 0.00 95 1018.3
20260830060035 21 219 0.0 0.0 0.00 0.00 0.00 95 1018.6
20260830055458 21 219 0.0 0.0 0.00 0.00 0.00 95 1018.6
20260830054956 21 219 0.0 0.0 0.00 0.00 0.00 95 1018.6
20260830054350 21 219 0.0 0.0 0.00 0.00 0.00 95 1018.6
20260830053848 21 219 0.0 0.0 0.00 0.00 0.00 95 1018.3
20260830053347 21 219 0.0 0.0 0.00 0.00 0.00 95 1018.6
20260830052845 21 219 0.0 0.0 0.00 0.00 0.00 95 1018.6
20260830052343 21 219 0.0 0.0 0.00 0.00 0.00 95 1018.6
20260830051840 21 219 0.0 0.0 0.00 0.00 0.00 95 1018.6
20260830051338 21 219 0.0 0.0 0.00 0.00 0.00 95 1018.6
20260830050836 21 219 0.0 0.0 0.00 0.00 0.00 95 1018.6
20260830050333 21 219 0.0 0.0 0.00 0.00 0.00 95 1018.6
20260830045832 21 219 0.0 0.0 0.00 0.00 0.00 95 1018.6
20260830045330 21 219 0.0 0.0 0.00 0.00 0.00 95 1018.6
20260830044828 21 220 0.0 0.0 0.00 0.00 0.00 95 1018.6
20260830044327 21 219 0.0 0.0 0.00 0.00 0.00 95 1018.6
20260830043819 21 219 0.0 0.0 0.00 0.00 0.00 95 1018.6
20260830043314 21 219 0.0 0.0 0.00 0.00 0.00 95 1018.6
20260830042812 21 219 0.0 0.0 0.00 0.00 0.00 95 1018.6
20260830042310 21 219 0.0 0.0 0.00 0.00 0.00 95 1018.6
20260830041807 21 219 0.0 0.0 0.00 0.00 0.00 95 1018.6
20260830041305 21 219 0.0 0.0 0.00 0.00 0.00 95 1018.6
20260830040757 22 219 0.0 0.0 0.00 0.00 0.00 95 1018.6
20260830040248 22 219 0.0 0.0 0.00 0.00 0.00 95 1018.6
20260830035740 22 219 0.0 0.0 0.00 0.00 0.00 95 1018.6
20260830035238 22 219 0.0 0.0 0.00 0.00 0.00 95 1018.6
20260830034737 22 219 0.0 0.0 0.00 0.00 0.00 95 1018.6
20260830034236 22 219 0.0 0.0 0.00 0.00 0.00 95 1018.3
20260830033733 22 219 0.0 0.0 0.00 0.00 0.00 95 1018.6
20260830033232 22 219 0.0 0.0 0.00 0.00 0.00 95 1018.6
20260830032658 22 219 0.0 0.0 0.00 0.00 0.00 95 1018.6
20260830032157 22 219 0.0 0.0 0.00 0.00 0.00 95 1018.6
20260830031654 22 219 0.0 0.0 0.00 0.00 0.00 95 1018.3
20260830031152 22 219 0.0 0.0 0.00 0.00 0.00 95 1018.3
20260830030651 22 219 0.0 0.0 0.00 0.00 0.00 95 1018.3
20260830030149 22 219 0.0 0.0 0.00 0.00 0.00 95 1018.3
20260830025648 22 219 0.0 0.0 0.00 0.00 0.00 95 1018.3
20260830025146 22 219 0.0 0.0 0.00 0.00 0.00 95 1018.3
20260830024613 22 219 0.0 0.0 0.00 0.00 0.00 95 1018.3
20260830024110 22 219 0.0 0.0 0.00 0.00 0.00 95 1017.9
20260830023609 22 219 0.0 0.0 0.00 0.00 0.00 94 1017.9
20260830023107 22 219 0.0 0.0 0.00 0.00 0.00 94 1017.9
20260830022605 22 219 0.0 0.0 0.00 0.00 0.00 94 1017.9
20260830022103 22 219 0.0 0.0 0.00 0.00 0.00 94 1017.9
20260830021600 23 219 0.0 0.0 0.00 0.00 0.00 94 1017.9
20260830021059 23 219 0.0 0.0 0.00 0.00 0.00 94 1017.9
20260830020557 23 220 0.0 0.0 0.00 0.00 0.00 94 1017.6
20260830020053 23 219 0.0 0.0 0.00 0.00 0.00 94 1017.6
20260830015551 23 219 0.0 0.0 0.00 0.00 0.00 93 1017.6
20260830015049 23 219 0.0 0.0 0.00 0.00 0.00 93 1017.6
20260830014546 23 219 0.0 0.0 0.00 0.00 0.00 94 1017.3
20260830014044 23 219 0.0 0.0 0.00 0.00 0.00 94 1017.3
20260830013543 23 219 0.0 0.0 0.00 0.00 0.00 93 1017.3
20260830013042 23 219 0.0 0.0 0.00 0.00 0.00 93 1016.9
20260830012508 23 219 0.0 0.0 0.00 0.00 0.00 93 1016.9
20260830011934 23 219 0.0 0.0 0.00 0.00 0.00 93 1016.9